[[{"header":{"parameterUnit":"m.s-1","parameterCategory":1,"la1":30.2992,"la2":30.254,"lo1":-89.0895,"lo2":-89.0443,"dy":0.0025,"dx":0.0025,"nx":19,"ny":19,"refTime":"2026-05-07T21:00:00:Z","depth":0,"parameterNumber":2,"parameterNumberName":"U-component_of_WINDS"},"data":[0,0,0,0.4163,0.4167,0.4366,0.4367,0.4604,0.4606,0,0,0,0,0,0,0,0,0,0,0,0.4091,0.4092,0.4163,0.4167,0.4366,0.4367,0.4604,0.4606,0,0,0,0,0,0,0,0,0,0,0,0.4091,0.4092,0.4093,0.4168,0.4365,0.4367,0.4603,0.446,0,0,0,0,0,0,0,0,0,0,0.427,0.419,0.4092,0.4094,0.4169,0.4365,0.4367,0.4453,0.4469,0.4506,0,0.4533,0,0.4573,0.4621,0.4621,0,0,0,0.4178,0.4177,0.4242,0.4094,0.4171,0.4365,0.4279,0.4462,0.448,0.4526,0.4537,0.4546,0.4577,0.4622,0.4623,0.4796,0.4797,0,0,0.4167,0.4121,0.423,0.4253,0.4218,0.4273,0.4285,0.4473,0.4482,0.4537,0.4552,0.4581,0.4623,0.4625,0.4796,0.4796,0,0,0,0.4128,0.4112,0.4173,0.4243,0.428,0.4278,0.4293,0.4474,0.4498,0.4555,0.4584,0.4625,0.4627,0.4796,0.4796,0.4766,0,0,0,0.4122,0.409,0.4168,0.4142,0.4276,0.4379,0.4288,0.4484,0.4507,0.4582,0.4625,0.4629,0.4795,0.4796,0.4766,0.476,0,0,0,0.4083,0.4086,0.411,0.4139,0.4222,0.4377,0.4411,0.449,0.4524,0.4621,0.463,0.4795,0.4796,0.4767,0.4761,0.4793,0,0,0,0.4028,0.4081,0.4108,0.4179,0.422,0.4355,0.4411,0.4515,0.4594,0.4626,0.4796,0.4796,0.4767,0.4761,0.4792,0.4811,0.4814,0,0,0.4069,0.4084,0.4129,0.416,0.4278,0.4329,0.4445,0.4563,0.4616,0.4734,0.4739,0.4766,0.4761,0.4793,0.4848,0.485,0,0,0,0.4127,0.4159,0.42,0.4273,0.4363,0.4441,0.4545,0.4589,0.4692,0.4666,0.4788,0.4786,0.4807,0.4818,0.482,0.4842,0.4799,0.4799,0.4799,0.4118,0.4182,0.4262,0.4349,0.4419,0.4527,0.4591,0.4669,0.4714,0.4741,0.4777,0.4803,0.4814,0.4816,0.4837,0.4792,0.4792,0.4792,0.4792,0.4184,0.424,0.4298,0.4395,0.4463,0.4548,0.4655,0.4684,0.4774,0.4781,0.4803,0.4805,0.4816,0.4838,0.479,0.479,0.4791,0.4791,0.4791,0.4186,0.4224,0.4275,0.4388,0.4468,0.4557,0.464,0.47,0.4756,0.4778,0.4823,0.4823,0.4832,0.4795,0.4795,0.4795,0.4795,0.4795,0.4795,0.4167,0.4226,0.4288,0.4389,0.4444,0.4525,0.4635,0.4692,0.4771,0.4808,0.4808,0.4851,0.4804,0.4792,0.4797,0.4796,0.4796,0.4796,0.4796,0.421,0.421,0.4305,0.4361,0.4485,0.4562,0.4637,0.4748,0.4804,0.4844,0.4883,0.4838,0.4859,0.4858,0.4848,0.4868,0.4868,0.4868,0.4868,0.4212,0.4228,0.4339,0.4424,0.4514,0.4592,0.4701,0.4788,0.4878,0.4918,0.4924,0.4915,0.4912,0.4935,0.4932,0.4924,0.4962,0.4962,0.4962,0.4243,0.427,0.435,0.4436,0.4539,0.4626,0.4731,0.4828,0.4931,0.4968,0.495,0.4946,0.4934,0.4926,0.4961,0.4956,0.4942,0,0]},{"header":{"parameterUnit":"m.s-1","parameterCategory":1,"la1":30.2992,"la2":30.254,"lo1":-89.0895,"lo2":-89.0443,"dy":0.0025,"dx":0.0025,"nx":19,"ny":19,"refTime":"2026-05-07T21:00:00:Z","depth":0,"parameterNumber":3,"parameterNumberName":"V-component_of_WINDS"},"data":[0,0,0,4.7459,4.746,4.7515,4.7515,4.7588,4.7589,0,0,0,0,0,0,0,0,0,0,0,4.7446,4.7447,4.7459,4.746,4.7515,4.7515,4.7588,4.7589,0,0,0,0,0,0,0,0,0,0,0,4.7446,4.7447,4.7448,4.7461,4.7515,4.7515,4.7588,4.7545,0,0,0,0,0,0,0,0,0,0,4.7491,4.7483,4.7446,4.7448,4.7461,4.7515,4.7515,4.7543,4.7548,4.7565,0,4.7584,0,4.7588,4.7594,4.7595,0,0,0,4.7457,4.7479,4.7491,4.7448,4.7461,4.7515,4.7489,4.7546,4.7551,4.7572,4.7585,4.7587,4.7589,4.7595,4.7595,4.7714,4.7715,0,0,4.7454,4.7457,4.7488,4.7495,4.7489,4.7488,4.7491,4.7549,4.7562,4.7585,4.7589,4.759,4.7595,4.7596,4.7714,4.7714,0,0,0,4.7447,4.7455,4.7466,4.7492,4.7502,4.7489,4.7493,4.756,4.7563,4.759,4.7591,4.7596,4.7597,4.7713,4.7714,4.7755,0,0,0,4.7445,4.7452,4.7465,4.7467,4.7501,4.7532,4.7503,4.7559,4.7565,4.7591,4.7596,4.7598,4.7712,4.7713,4.7752,4.7773,0,0,0,4.7441,4.7451,4.7461,4.7467,4.7491,4.7531,4.7537,4.756,4.7566,4.7595,4.7598,4.7711,4.7713,4.775,4.7769,4.7808,0,0,0,4.7437,4.7494,4.7461,4.7525,4.7491,4.7556,4.7537,4.7585,4.7614,4.7596,4.7712,4.7714,4.7749,4.7767,4.7805,4.7842,4.7857,0,0,4.751,4.7502,4.754,4.7512,4.7585,4.7548,4.7625,4.7647,4.7644,4.7691,4.7693,4.7753,4.7769,4.7807,4.7939,4.7952,0,0,0,4.7564,4.7591,4.7609,4.7639,4.7659,4.7678,4.7688,4.7696,4.7736,4.767,4.7776,4.7786,4.7808,4.7825,4.7836,4.7855,4.7722,4.7721,4.7721,4.7672,4.7669,4.7731,4.7736,4.7764,4.7775,4.7798,4.7811,4.7796,4.7822,4.7836,4.7917,4.7937,4.7945,4.7965,4.7854,4.7854,4.7854,4.7854,4.778,4.7819,4.7802,4.7857,4.7853,4.7897,4.791,4.7899,4.794,4.7905,4.7925,4.7889,4.7959,4.7976,4.7857,4.7857,4.7856,4.7856,4.7856,4.7852,4.787,4.7881,4.7926,4.7959,4.796,4.8001,4.7995,4.7989,4.8008,4.8023,4.8022,4.8022,4.8015,4.8016,4.8016,4.8016,4.8017,4.8017,4.7922,4.7934,4.797,4.7998,4.8018,4.8042,4.8055,4.8073,4.8091,4.8083,4.8083,4.8068,4.7966,4.7942,4.8021,4.802,4.802,4.8019,4.8019,4.8035,4.8009,4.8066,4.8086,4.8119,4.8154,4.8146,4.8184,4.8198,4.8219,4.8199,4.8125,4.8115,4.8107,4.8087,4.8199,4.8199,4.8199,4.8199,4.8097,4.8092,4.8151,4.8183,4.8214,4.8213,4.8277,4.8288,4.8294,4.8302,4.8285,4.8257,4.8248,4.8244,4.8233,4.8214,4.8356,4.8356,4.8356,4.8167,4.8166,4.8222,4.8231,4.8257,4.8279,4.8339,4.8376,4.8377,4.8362,4.8309,4.8302,4.8257,4.8242,4.8227,4.821,4.8175,0,0]}]]